sat.trackr.live / text

‹ back to catalog

STARLINK-3147

NORAD 49410 · 2021-104C

PAYLOAD ACTIVE UNKNOWN

§ Identity

Operator
Country
US
Launch date
2021-11-13
Launch site
AFETR
Launch vehicle
Mass (kg)
RCS (m²)

Purposes: comms

External: N2YO · Heavens-Above · Gunter

§ Orbital elements

Epoch: 2026-05-24T16:44:32.804160Z

Period
95.44 min
Inclination
53.2166°
Eccentricity
0.0001392
Mean motion
15.08840908 rev/d
Perigee alt
538.8 km
Apogee alt
540.7 km
Semi-major
6,917.9 km
B*
4.1929e-5
RAAN
247.9166°
Arg perigee
89.9037°
Mean anomaly
270.2115°
Rev number
25,010

§ Raw data

STARLINK-31471 49410U 21104C   26144.69760190  .00000379  00000+0  41929-4 0  99982 49410  53.2166 247.9166 0001392  89.9037 270.2115 15.08840908250108

JSON: /api/v1/satellites/49410 · /tle

For live sub-satellite position, see the globe view (requires WebGL).

§ Visibility from observer

Set your observer location to see the next 7 days of passes ≥ 10°. The values pass through the URL so the page stays shareable.

No JS? Fill the form by hand. The geolocation button needs JavaScript.